Location: Rio Negrinho
(26.2394°S, 49.4999°W)
Time: 01:12:49
(UTC+00:00)

SMAP - Pass Details

Date: 07 June 2020
Orbit: 682 x 683 km, 98.1° (Epoch: 13 July)

Event Time Altitude Azimuth Distance (km) Brightness Sun altitude
Rises 08:55:21 0° 13° (NNE) 3,027 6.8 -14.4°
Reaches altitude 10° 08:57:34 10° 12° (NNE) 2,119 6.0 -14.0°
Maximum altitude 09:02:13 88° 283° (WNW) 692 3.0 -13.0°
Drops below altitude 10° 09:06:55 10° 192° (SSW) 2,146 5.3 -12.0°
Sets 09:09:11 0° 192° (SSW) 3,068 6.1 -11.5°
